weather.gov     
National Weather Service

Terminal Aerodrome Forecast
NWS Homepage
This page is being discontinued on March 12, 2014.
The same data is available at this site. Please update your bookmarks.
Thank you, and we apologize for the inconvenience.
Please send an email to SR-SRH.Webmaster@noaa.gov with any concerns.


Current Version
Previous Version:    01  02  03  04  05  06  07  08  09  10  11  12  13  14  15  16  17  18  19  20  21  22  23  24  25  26  27  28  29  30  
   31  32  33  34  35  36  37  38  39  
[Printable]
771
FTUS44 KLZK 221700
TAFHOT
TAF
KHOT 221735Z 2218/2318 16008KT P6SM VCSH SCT025 OVC040
     FM230200 12009KT P6SM VCSH SCT015 OVC025
     FM230500 12004KT 4SM -RA BR VCTS BKN007 OVC012CB WS020/18035KT
     FM231000 13008KT 4SM -RA BR VCTS OVC008CB WS020/18035KT=


U.S. Dept. of Commerce
NOAA National Weather Service
1325 East West Highway
Silver Spring, MD 20910
E-mail: w-nws.webmaster@noaa.gov
Page last modified: May 16, 2007
NATIONAL WEATHER SERVICE: for Safety, for Work, for Fun - FOR LIFE